Regional Weather Roundup
Issued by NWS Lake Charles, LA

Home | Current Version | Previous Version | Text Only | Print | Product List | Glossary On
Versions: 1 2 3 4 5 6 7 8 9 10 11 12 13 14 15 16 17 18 19 20 21 22 23 24 25 26 27 28 29 30 31 32 33 34 35 36 37 38 39 40 41 42 43 44 45 46 47 48 49 50
000
ASUS44 KLCH 021210
RWRLCH
RWRLCH
REGIONAL WEATHER ROUNDUP
NATIONAL WEATHER SERVICE LAKE CHARLES LA
700 AM CDT TUE SEP 02 2014

Note: "fair" indicates few or no clouds below 12,000 feet with no
significant weather and/or obstructions to visibility.


ACROSS SOUTHEAST TEXAS

CITY           SKY/WX    TMP DP  RH WIND       PRES   REMARKS
BEAUMONT       CLEAR     80  76  87 SE7       29.97R
BEAUMONT CITY    N/A     77  76  98 S8        29.97S
ORANGE         SUNNY     80  80 100 SE3       29.99S
JASPER         MOCLDY    74  73  96 CALM      30.00S FOG
$$

ACROSS CENTRAL LOUISIANA

CITY           SKY/WX    TMP DP  RH WIND       PRES   REMARKS
LEESVILLE      CLOUDY    76  76 100 SE7       30.00R
FULLERTON      CLOUDY    78  76  93 CALM      29.98R
ALEXANDRIA INT FOG       76  76 100 S7        29.99R VSB 1/4
ESLER FIELD    CLOUDY    77  75  93 S3        30.01S FOG
DERIDDER       FOG       76  75  95 CALM      30.01S VSB 3/4
OAKDALE        CLOUDY    76  75  95 CALM      30.01R FOG
OPELOUSAS        N/A     75  74  98 SE5       30.01S
$$

ACROSS SOUTHWEST AND SOUTH CENTRAL LOUISIANA

CITY           SKY/WX    TMP DP  RH WIND       PRES   REMARKS
SULPHUR        MOSUNNY   81  78  91 SE6       29.99S
LAKE CHARLES   PTCLDY    78  77  96 SE3       29.99R
CHENNAULT INT  CLEAR     77  75  94 E3        30.00S
CAMERON PHI    MOSUNNY   82  79  89 S9        30.00R
DEQUINCY         N/A     76  75  98 SE3       29.99S
JENNINGS         N/A     77  77  99 SE5       30.01R
LAFAYETTE      PTCLDY    76  75  97 CALM      30.02S
NEW IBERIA     CLEAR     77  75  93 E3        30.03R
ABBEVILLE        N/A     74  74  99 CALM      30.02R
PATTERSON        N/A     75  75 100 CALM      30.05R
SALT POINT       N/A     85  77  77 CALM      30.02R
$$

SELECTED SITES ACROSS THE REGION

CITY           SKY/WX    TMP DP  RH WIND       PRES   REMARKS
HOUSTON BUSH   PTCLDY    79  75  89 S3        29.95R
HOUSTON HOBBY  PTCLDY    80  76  87 CALM      29.95R
GALVESTON      MOCLDY    84  77  79 S10       29.96R
COLLEGE STAT   CLOUDY    77  76  96 S7        29.95R
CONROE         MOCLDY    75  74  96 CALM      29.97R
HUNTSVILLE     CLEAR     78  76  93 S5        29.96R
LUFKIN         CLOUDY    79  75  87 SE7       29.97R FOG
SHREVEPORT     MOCLDY    78  75  90 SE6       29.98R
MONROE         CLOUDY    77  75  94 S5        30.02R
NATCHEZ MS     CLOUDY    75  73  94 S5        30.03S
BATON ROUGE    CLEAR     75  73  93 NE3       30.04R
N.O. INTL ARPT MOCLDY    80  76  87 SE3       30.05R
SLIDELL        MOCLDY    77  75  93 CALM      30.05R THUNDER
$$

MARINE REPORTS

STATION/POSITION TIME  TEMP    WIND        PRES    VSBY  WAVE
                       AIR SEA DIR/SP/G                  HT/PER
                 (UTC) (F)     (DEG/KT/KT) (MB)    (MI)  (FT/S)
BUOY 30 S HIGH I 1200   83 85  140/ 14/ 17 1013.8R         4/ 6
SEA RIM ST PARK  1200   83     160/ 10/ 12 1015.5R
PORT ARTHUR      1200      85  160/  4/  7 1014.9R
SABINE PASS N    1200   83 84  170/  7/ 10 1014.9S
TEXAS POINT      1200   83 84  160/ 11/ 12 1015.1R
CALCASIEU PASS   1200   84 83  190/ 10/ 15 1016.5R
LK CHARLES BEACH 1200   78 83              1016.3R
MARSH ISLAND     NOT AVBL
FRESH WATER LOCK 1200   82 84  140/  6/  9 1016.1R
AMERADA PASS     1200   81 85  130/  3/  4 1016.7R
$$


USA.gov is the U.S. government's official web portal to all federal, state and local government web resources and services.